Weather Roundup
Issued by NWS Chicago, IL

Home | Current Version | Previous Version | Graphics & Text | Print | Product List | Glossary On
Versions: 1 2 3 4 5 6 7 8 9 10 11 12 13 14 15 16 17 18 19 20 21 22 23 24 25 26 27 28 29 30 31 32 33 34 35 36 37 38 39 40 41 42 43 44 45 46 47 48 49 50
000
NZUS59 KLOT 271858
HRRLOT

CHICAGO AREA WEATHER ROUNDUP
NATIONAL WEATHER SERVICE CHICAGO/ROMEOVILLE IL
100 PM CST TUE JAN 27 2015

NOTE: "FAIR" INDICATES FEW OR NO CLOUDS BELOW 12,000 FEET WITH NO
SIGNIFICANT WEATHER AND/OR OBSTRUCTIONS TO VISIBILITY.

* THESE STATIONS ARE NOT UNDER NWS QUALITY CONTROL. THEY ALSO MAY NOT
  REPORT WEATHER SUCH AS PRECIPITATION OR FOG.

ILZ005-006-012>014-019>023-272000-
NORTHEAST ILLINOIS

CITY           SKY/WX    TMP DP  RH WIND       PRES   REMARKS
OHARE          MOSUNNY   31  18  58 NE8       30.16S WCI  23
MIDWAY         MOSUNNY   32  19  58 NE6       30.17S WCI  26
AURORA         CLOUDY    31  22  69 NE8       30.17S WCI  23
WAUKEGAN       NOT AVBL
DUPAGE AIRPORT CLOUDY    30  21  69 N7        30.16S WCI  23
WHEELING       MOSUNNY   30  18  60 N7        30.19S WCI  23
NORTHERLY IS     N/A     29  18  63 NE9         N/A  WCI  21
$$

WIZ051-052-058>065-066-070>072-272000-
SOUTHEAST WISCONSIN

CITY           SKY/WX    TMP DP  RH WIND       PRES   REMARKS
MILWAUKEE      MOSUNNY   29  15  56 NE9       30.19S WCI  20
KENOSHA*       MOSUNNY   31  18  58 NE7       30.18S WCI  24
$$

INZ001>003-010>013-019-020-272000-
NORTHWEST INDIANA

CITY           SKY/WX    TMP DP  RH WIND       PRES   REMARKS
GARY*          MOSUNNY   32  12  43 NE9       30.18R WCI  24
MICHIGAN CITY* NOT AVBL
RENSSELAER*    NOT AVBL
$$

LMZ740>746-272000-
SOUTHERN LAKE MICHIGAN

STATION/POSITION TIME  SKY/WX   TEMP WIND        PRES    VSBY
                                AIR  DIR/SP/G
                 (UTC)          (F)  (DEG/KT/KT) (MB)    (MI)
HARRISON CRIB    1800            27   30/  8/ 10   N/A
BURNHAM HARBOR   1800            30   20/  7/ 10   N/A
CALUMET HARBOR   1800            29   20/  8/  9   N/A
BURNS HARBOR     NOT AVBL
MICHIGAN CITY    1800            27  340/ 10/ 12   N/A
$$

ABBREVIATIONS USED IN REMARKS
   TC - TEMPERATURE IN CELSIUS
  WCI - WIND CHILL INDEX
   HX - HEAT INDEX
  VSB - VISIBILITY
$$


USA.gov is the U.S. government's official web portal to all federal, state and local government web resources and services.